GB 1

导读 | 豆包AI

GB 1(国际标识1983-065A)是美国研发的人造卫星,于1983年6月9日发射升空。该卫星运行在地球同步轨道,半长轴约42200公里,轨道倾角约13.74°,周期接近地球自转周期。作为美国1980年代空间部署的一环,截至2025年仍保持在轨状态,累计飞行超15000天,持续为空间观测、轨道试验等任务提供数据支撑,是美国早期空间探索的重要遗存。

基本信息
目录编号:
14143
目录名称:
GB 1
国际标识:
1983-056C
轨道中心:
EARTH
卫星名称:
GB 1
卫星全名:
--
卫星状态:
在轨 (已飞行15666 天)
发射日期:
1983-06-09 UTC
国别 :
美国 (US)
星等 :
--
轨道信息
数据来源 国际轨道数据 AOE轨道数据
星历时间 2026-04-30T23:52:48+0800
6小时前
查看轨道信息
2026-04-25T23:00:00+0800
5天前
查看轨道信息
半长轴 7346.852km 7346.888km
偏心率 0.0728505 0.0729037
轨道倾角 63.314° 63.311°
近地点辐角 130.811° 130.762°
升交点赤经 25.356° 39.236°
平近点角 235.850° 78.585°
近地点 433.493km 433.135km
远地点 1503.937km 1504.367km
周期 104.451分钟 104.452分钟
每日圈数 13.786399 13.786299
详细信息
使用方式:
暂无
2D轨道图
3D轨道图
轨道高度分析图
轨道倾角分析图
轨道综合分析图
查看轨道综合分析图